sat.trackr.live / text

‹ back to catalog

STARLINK-32743

NORAD 62480 · 2024-254U

PAYLOAD ACTIVE UNKNOWN

§ Identity

Operator
Country
US
Launch date
2024-12-31
Launch site
AFETR
Launch vehicle
Mass (kg)
RCS (m²)

Purposes: comms

External: N2YO · Heavens-Above · Gunter

§ Orbital elements

Epoch: 2026-05-25T03:49:55.094016Z

Period
94.27 min
Inclination
42.9984°
Eccentricity
0.0000642
Mean motion
15.27595432 rev/d
Perigee alt
482.6 km
Apogee alt
483.4 km
Semi-major
6,861.1 km
B*
4.5481e-4
RAAN
304.0290°
Arg perigee
261.2940°
Mean anomaly
98.7839°
Rev number
7,935

§ Raw data

STARLINK-327431 62480U 24254U   26145.15966544  .00012280  00000+0  45481-3 0  99922 62480  42.9984 304.0290 0000642 261.2940  98.7839 15.27595432 79353

JSON: /api/v1/satellites/62480 · /tle

For live sub-satellite position, see the globe view (requires WebGL).

§ Visibility from observer

Set your observer location to see the next 7 days of passes ≥ 10°. The values pass through the URL so the page stays shareable.

No JS? Fill the form by hand. The geolocation button needs JavaScript.